Year,Month,Day,Hour,Minute,Value (Times are PST for temperature in C)
2016,03,17,00,00,2.30
2016,03,17,00,01,2.30
2016,03,17,00,02,2.20
2016,03,17,00,03,2.20
2016,03,17,00,04,2.20
2016,03,17,00,05,2.20
2016,03,17,00,06,2.20
2016,03,17,00,07,2.20
2016,03,17,00,08,2.20
2016,03,17,00,09,2.20
2016,03,17,00,10,2.10
2016,03,17,00,11,2.10
2016,03,17,00,12,2.10
2016,03,17,00,13,2.10
2016,03,17,00,14,2.10
2016,03,17,00,15,2.10
2016,03,17,00,16,2.00
2016,03,17,00,17,2.00
2016,03,17,00,18,2.00
2016,03,17,00,19,2.00
2016,03,17,00,20,2.00
2016,03,17,00,21,1.90
2016,03,17,00,22,1.90
2016,03,17,00,23,1.90
2016,03,17,00,24,1.90
2016,03,17,00,25,2.00
2016,03,17,00,26,2.00
2016,03,17,00,27,2.00
2016,03,17,00,28,1.90
2016,03,17,00,29,1.90
2016,03,17,00,30,1.90
2016,03,17,00,31,1.90
2016,03,17,00,32,1.90
2016,03,17,00,33,1.90
2016,03,17,00,34,1.90
2016,03,17,00,35,1.90
2016,03,17,00,36,1.90
2016,03,17,00,37,1.90
2016,03,17,00,38,1.90
2016,03,17,00,39,1.90
2016,03,17,00,40,1.90
2016,03,17,00,41,1.90
2016,03,17,00,42,1.80
2016,03,17,00,43,1.80
2016,03,17,00,44,1.80
2016,03,17,00,45,1.80
2016,03,17,00,46,1.80
2016,03,17,00,47,1.80
2016,03,17,00,48,1.80
2016,03,17,00,49,1.80
2016,03,17,00,50,1.80
2016,03,17,00,51,1.80
2016,03,17,00,52,1.70
2016,03,17,00,53,1.70
2016,03,17,00,54,1.70
2016,03,17,00,55,1.70
2016,03,17,00,56,1.70
2016,03,17,00,57,1.70
2016,03,17,00,58,1.70
2016,03,17,00,59,1.70
2016,03,17,01,00,1.70
2016,03,17,01,01,1.70
2016,03,17,01,02,1.70
2016,03,17,01,03,1.70
2016,03,17,01,04,1.60
2016,03,17,01,05,1.60
2016,03,17,01,06,1.60
2016,03,17,01,07,1.60
2016,03,17,01,08,1.60
2016,03,17,01,09,1.60
2016,03,17,01,10,1.60
2016,03,17,01,11,1.60
2016,03,17,01,12,1.60
2016,03,17,01,13,1.60
2016,03,17,01,14,1.60
2016,03,17,01,15,1.60
2016,03,17,01,16,1.60
2016,03,17,01,17,1.60
2016,03,17,01,18,1.60
2016,03,17,01,19,1.60
2016,03,17,01,20,1.60
2016,03,17,01,21,1.60
2016,03,17,01,22,1.50
2016,03,17,01,23,1.50
2016,03,17,01,24,1.50
2016,03,17,01,25,1.50
2016,03,17,01,26,1.50
2016,03,17,01,27,1.50
2016,03,17,01,28,1.50
2016,03,17,01,29,1.40
2016,03,17,01,30,1.40
2016,03,17,01,31,1.40
2016,03,17,01,32,1.40
2016,03,17,01,33,1.40
2016,03,17,01,34,1.40
2016,03,17,01,35,1.40
2016,03,17,01,36,1.40
2016,03,17,01,37,1.40
2016,03,17,01,38,1.40
2016,03,17,01,39,1.40
2016,03,17,01,40,1.40
2016,03,17,01,41,1.40
2016,03,17,01,42,1.40
2016,03,17,01,43,1.40
2016,03,17,01,44,1.30
2016,03,17,01,45,1.30
2016,03,17,01,46,1.30
2016,03,17,01,47,1.30
2016,03,17,01,48,1.30
2016,03,17,01,49,1.30
2016,03,17,01,50,1.30
2016,03,17,01,51,1.30
2016,03,17,01,52,1.30
2016,03,17,01,53,1.30
2016,03,17,01,54,1.30
2016,03,17,01,55,1.30
2016,03,17,01,56,1.20
2016,03,17,01,57,1.20
2016,03,17,01,58,1.20
2016,03,17,01,59,1.20
2016,03,17,02,00,1.20
2016,03,17,02,01,1.20
2016,03,17,02,02,1.20
2016,03,17,02,03,1.20
2016,03,17,02,04,1.20
2016,03,17,02,05,1.20
2016,03,17,02,06,1.20
2016,03,17,02,07,1.20
2016,03,17,02,08,1.20
2016,03,17,02,09,1.20
2016,03,17,02,10,1.20
2016,03,17,02,11,1.20
2016,03,17,02,12,1.20
2016,03,17,02,13,1.20
2016,03,17,02,14,1.20
2016,03,17,02,15,1.20
2016,03,17,02,16,1.20
2016,03,17,02,17,1.20
2016,03,17,02,18,1.20
2016,03,17,02,19,1.20
2016,03,17,02,20,1.20
2016,03,17,02,21,1.20
2016,03,17,02,22,1.20
2016,03,17,02,23,1.10
2016,03,17,02,24,1.10
2016,03,17,02,25,1.10
2016,03,17,02,26,1.10
2016,03,17,02,27,1.10
2016,03,17,02,28,1.10
2016,03,17,02,29,1.20
2016,03,17,02,30,1.10
2016,03,17,02,31,1.20
2016,03,17,02,32,1.20
2016,03,17,02,33,1.20
2016,03,17,02,34,1.20
2016,03,17,02,35,1.20
2016,03,17,02,36,1.20
2016,03,17,02,37,1.20
2016,03,17,02,38,1.20
2016,03,17,02,39,1.20
2016,03,17,02,40,1.20
2016,03,17,02,41,1.20
2016,03,17,02,42,1.10
2016,03,17,02,43,1.10
2016,03,17,02,44,1.10
2016,03,17,02,45,1.10
2016,03,17,02,46,1.10
2016,03,17,02,47,1.10
2016,03,17,02,48,1.10
2016,03,17,02,49,1.10
2016,03,17,02,50,1.10
2016,03,17,02,51,1.00
2016,03,17,02,52,1.00
2016,03,17,02,53,1.00
2016,03,17,02,54,1.00
2016,03,17,02,55,1.00
2016,03,17,02,56,1.00
2016,03,17,02,57,1.00
2016,03,17,02,58,1.00
2016,03,17,02,59,1.00
2016,03,17,03,00,1.00
2016,03,17,03,01,1.00
2016,03,17,03,02,1.00
2016,03,17,03,03,1.00
2016,03,17,03,04,1.00
2016,03,17,03,05,1.00
2016,03,17,03,06,1.00
2016,03,17,03,07,1.00
2016,03,17,03,08,1.00
2016,03,17,03,09,1.00
2016,03,17,03,10,1.10
2016,03,17,03,11,1.10
2016,03,17,03,12,1.10
2016,03,17,03,13,1.10
2016,03,17,03,14,1.10
2016,03,17,03,15,1.10
2016,03,17,03,16,1.10
2016,03,17,03,17,1.10
2016,03,17,03,18,1.10
2016,03,17,03,19,1.10
2016,03,17,03,20,1.00
2016,03,17,03,21,1.00
2016,03,17,03,22,1.00
2016,03,17,03,23,1.10
2016,03,17,03,24,1.10
2016,03,17,03,25,1.10
2016,03,17,03,26,1.10
2016,03,17,03,27,1.10
2016,03,17,03,28,1.20
2016,03,17,03,29,1.20
2016,03,17,03,30,1.30
2016,03,17,03,31,1.30
2016,03,17,03,32,1.30
2016,03,17,03,33,1.30
2016,03,17,03,34,1.30
2016,03,17,03,35,1.40
2016,03,17,03,36,1.40
2016,03,17,03,37,1.50
2016,03,17,03,38,1.50
2016,03,17,03,39,1.60
2016,03,17,03,40,1.70
2016,03,17,03,41,1.70
2016,03,17,03,42,1.80
2016,03,17,03,43,1.90
2016,03,17,03,44,2.00
2016,03,17,03,45,2.00
2016,03,17,03,46,2.10
2016,03,17,03,47,2.20
2016,03,17,03,48,2.30
2016,03,17,03,49,2.40
2016,03,17,03,50,2.40
2016,03,17,03,51,2.50
2016,03,17,03,52,2.50
2016,03,17,03,53,2.60
2016,03,17,03,54,2.60
2016,03,17,03,55,2.60
2016,03,17,03,56,2.60
2016,03,17,03,57,2.60
2016,03,17,03,58,2.60
2016,03,17,03,59,2.60
2016,03,17,04,00,2.60
2016,03,17,04,01,2.60
2016,03,17,04,02,2.60
2016,03,17,04,03,2.60
2016,03,17,04,04,2.70
2016,03,17,04,05,2.80
2016,03,17,04,06,2.80
2016,03,17,04,07,2.90
2016,03,17,04,08,2.90
2016,03,17,04,09,3.00
2016,03,17,04,10,3.10
2016,03,17,04,11,3.20
2016,03,17,04,12,3.30
2016,03,17,04,13,3.30
2016,03,17,04,14,3.40
2016,03,17,04,15,3.50
2016,03,17,04,16,3.60
2016,03,17,04,17,3.70
2016,03,17,04,18,3.80
2016,03,17,04,19,3.80
2016,03,17,04,20,3.90
2016,03,17,04,21,4.00
2016,03,17,04,22,4.00
2016,03,17,04,23,4.10
2016,03,17,04,24,4.10
2016,03,17,04,25,4.10
2016,03,17,04,26,4.10
2016,03,17,04,27,4.20
2016,03,17,04,28,4.20
2016,03,17,04,29,4.20
2016,03,17,04,30,4.30
2016,03,17,04,31,4.30
2016,03,17,04,32,4.40
2016,03,17,04,33,4.40
2016,03,17,04,34,4.40
2016,03,17,04,35,4.40
2016,03,17,04,36,4.50
2016,03,17,04,37,4.50
2016,03,17,04,38,4.50
2016,03,17,04,39,4.60
2016,03,17,04,40,4.60
2016,03,17,04,41,4.60
2016,03,17,04,42,4.60
2016,03,17,04,43,4.60
2016,03,17,04,44,4.70
2016,03,17,04,45,4.70
2016,03,17,04,46,4.70
2016,03,17,04,47,4.70
2016,03,17,04,48,4.80
2016,03,17,04,49,4.80
2016,03,17,04,50,4.80
2016,03,17,04,51,4.80
2016,03,17,04,52,4.90
2016,03,17,04,53,4.90
2016,03,17,04,54,4.90
2016,03,17,04,55,4.90
2016,03,17,04,56,4.90
2016,03,17,04,57,4.90
2016,03,17,04,58,4.90
2016,03,17,04,59,4.90
2016,03,17,05,00,4.90
2016,03,17,05,01,5.00
2016,03,17,05,02,5.00
2016,03,17,05,03,5.00
2016,03,17,05,04,5.00
2016,03,17,05,05,5.00
2016,03,17,05,06,5.00
2016,03,17,05,07,5.00
2016,03,17,05,08,5.00
2016,03,17,05,09,5.00
2016,03,17,05,10,5.00
2016,03,17,05,11,5.00
2016,03,17,05,12,5.00
2016,03,17,05,13,5.00
2016,03,17,05,14,5.00
2016,03,17,05,15,5.00
2016,03,17,05,16,5.10
2016,03,17,05,17,5.10
2016,03,17,05,18,5.00
2016,03,17,05,19,5.00
2016,03,17,05,20,5.00
2016,03,17,05,21,5.00
2016,03,17,05,22,5.00
2016,03,17,05,23,5.00
2016,03,17,05,24,5.00
2016,03,17,05,25,5.00
2016,03,17,05,26,5.00
2016,03,17,05,27,5.00
2016,03,17,05,28,5.10
2016,03,17,05,29,5.10
2016,03,17,05,30,5.10
2016,03,17,05,31,5.10
2016,03,17,05,32,5.10
2016,03,17,05,33,5.00
2016,03,17,05,34,5.00
2016,03,17,05,35,5.00
2016,03,17,05,36,5.00
2016,03,17,05,37,5.00
2016,03,17,05,38,5.00
2016,03,17,05,39,5.00
2016,03,17,05,40,5.00
2016,03,17,05,41,5.00
2016,03,17,05,42,5.00
2016,03,17,05,43,4.90
2016,03,17,05,44,4.90
2016,03,17,05,45,4.90
2016,03,17,05,46,4.90
2016,03,17,05,47,4.90
2016,03,17,05,48,4.90
2016,03,17,05,49,4.90
2016,03,17,05,50,4.90
2016,03,17,05,51,4.90
2016,03,17,05,52,4.90
2016,03,17,05,53,4.90
2016,03,17,05,54,4.90
2016,03,17,05,55,4.90
2016,03,17,05,56,4.90
2016,03,17,05,57,4.90
2016,03,17,05,58,4.90
2016,03,17,05,59,4.90
2016,03,17,06,00,4.90
2016,03,17,06,01,4.90
2016,03,17,06,02,4.90
2016,03,17,06,03,4.90
2016,03,17,06,04,4.90
2016,03,17,06,05,4.90
2016,03,17,06,06,4.90
2016,03,17,06,07,4.90
2016,03,17,06,08,4.90
2016,03,17,06,09,4.90
2016,03,17,06,10,4.90
2016,03,17,06,11,4.90
2016,03,17,06,12,4.90
2016,03,17,06,13,4.80
2016,03,17,06,14,4.80
2016,03,17,06,15,4.80
2016,03,17,06,16,4.80
2016,03,17,06,17,4.80
2016,03,17,06,18,4.80
2016,03,17,06,19,4.80
2016,03,17,06,20,4.80
2016,03,17,06,21,4.80
2016,03,17,06,22,4.80
2016,03,17,06,23,4.80
2016,03,17,06,24,4.80
2016,03,17,06,25,4.80
2016,03,17,06,26,4.80
2016,03,17,06,27,4.80
2016,03,17,06,28,4.80
2016,03,17,06,29,4.80
2016,03,17,06,30,4.80
2016,03,17,06,31,4.80
2016,03,17,06,32,4.80
2016,03,17,06,33,4.80
2016,03,17,06,34,4.80
2016,03,17,06,35,4.80
2016,03,17,06,36,4.80
2016,03,17,06,37,4.80
2016,03,17,06,38,4.80
2016,03,17,06,39,4.70
2016,03,17,06,40,4.70
2016,03,17,06,41,4.70
2016,03,17,06,42,4.70
2016,03,17,06,43,4.70
2016,03,17,06,44,4.70
2016,03,17,06,45,4.70
2016,03,17,06,46,4.70
2016,03,17,06,47,4.60
2016,03,17,06,48,4.60
2016,03,17,06,49,4.60
2016,03,17,06,50,4.60
2016,03,17,06,51,4.50
2016,03,17,06,52,4.50
2016,03,17,06,53,4.50
2016,03,17,06,54,4.50
2016,03,17,06,55,4.40
2016,03,17,06,56,4.40
2016,03,17,06,57,4.40
2016,03,17,06,58,4.40
2016,03,17,06,59,4.30
2016,03,17,07,00,4.30
2016,03,17,07,01,4.30
2016,03,17,07,02,4.30
2016,03,17,07,03,4.30
2016,03,17,07,04,4.30
2016,03,17,07,05,4.30
2016,03,17,07,06,4.30
2016,03,17,07,07,4.30
2016,03,17,07,08,4.20
2016,03,17,07,09,4.20
2016,03,17,07,10,4.20
2016,03,17,07,11,4.20
2016,03,17,07,12,4.20
2016,03,17,07,13,4.20
2016,03,17,07,14,4.10
2016,03,17,07,15,4.10
2016,03,17,07,16,4.10
2016,03,17,07,17,4.10
2016,03,17,07,18,4.10
2016,03,17,07,19,4.00
2016,03,17,07,20,4.00
2016,03,17,07,21,4.00
2016,03,17,07,22,4.00
2016,03,17,07,23,3.90
2016,03,17,07,24,3.90
2016,03,17,07,25,3.90
2016,03,17,07,26,3.90
2016,03,17,07,27,3.90
2016,03,17,07,28,3.90
2016,03,17,07,29,3.90
2016,03,17,07,30,3.90
2016,03,17,07,31,3.90
2016,03,17,07,32,3.90
2016,03,17,07,33,3.90
2016,03,17,07,34,3.90
2016,03,17,07,35,3.90
2016,03,17,07,36,4.00
2016,03,17,07,37,4.00
2016,03,17,07,38,4.00
2016,03,17,07,39,4.10
2016,03,17,07,40,4.10
2016,03,17,07,41,4.10
2016,03,17,07,42,4.10
2016,03,17,07,43,4.10
2016,03,17,07,44,4.10
2016,03,17,07,45,4.10
2016,03,17,07,46,4.10
2016,03,17,07,47,4.20
2016,03,17,07,48,4.20
2016,03,17,07,49,4.20
2016,03,17,07,50,4.20
2016,03,17,07,51,4.20
2016,03,17,07,52,4.20
2016,03,17,07,53,4.20
2016,03,17,07,54,4.20
2016,03,17,07,55,4.20
2016,03,17,07,56,4.20
2016,03,17,07,57,4.30
2016,03,17,07,58,4.30
2016,03,17,07,59,4.30
2016,03,17,08,00,4.30
2016,03,17,08,01,4.40
2016,03,17,08,02,4.40
2016,03,17,08,03,4.40
2016,03,17,08,04,4.50
2016,03,17,08,05,4.50
2016,03,17,08,06,4.60
2016,03,17,08,07,4.60
2016,03,17,08,08,4.70
2016,03,17,08,09,4.70
2016,03,17,08,10,4.80
2016,03,17,08,11,4.80
2016,03,17,08,12,4.80
2016,03,17,08,13,4.90
2016,03,17,08,14,4.90
2016,03,17,08,15,5.00
2016,03,17,08,16,5.00
2016,03,17,08,17,5.00
2016,03,17,08,18,5.10
2016,03,17,08,19,5.10
2016,03,17,08,20,5.20
2016,03,17,08,21,5.20
2016,03,17,08,22,5.20
2016,03,17,08,23,5.30
2016,03,17,08,24,5.30
2016,03,17,08,25,5.30
2016,03,17,08,26,5.30
2016,03,17,08,27,5.40
2016,03,17,08,28,5.40
2016,03,17,08,29,5.40
2016,03,17,08,30,5.50
2016,03,17,08,31,5.60
2016,03,17,08,32,5.60
2016,03,17,08,33,5.60
2016,03,17,08,34,5.70
2016,03,17,08,35,5.70
2016,03,17,08,36,5.70
2016,03,17,08,37,5.70
2016,03,17,08,38,5.80
2016,03,17,08,39,5.80
2016,03,17,08,40,5.80
2016,03,17,08,41,5.80
2016,03,17,08,42,5.80
2016,03,17,08,43,5.90
2016,03,17,08,44,5.90
2016,03,17,08,45,5.90
2016,03,17,08,46,5.90
2016,03,17,08,47,6.00
2016,03,17,08,48,6.00
2016,03,17,08,49,6.10
2016,03,17,08,50,6.10
2016,03,17,08,51,6.10
2016,03,17,08,52,6.10
2016,03,17,08,53,6.20
2016,03,17,08,54,6.20
2016,03,17,08,55,6.20
2016,03,17,08,56,6.30
2016,03,17,08,57,6.30
2016,03,17,08,58,6.30
2016,03,17,08,59,6.30
2016,03,17,09,00,6.30
2016,03,17,09,01,6.30
2016,03,17,09,02,6.40
2016,03,17,09,03,6.40
2016,03,17,09,04,6.40
2016,03,17,09,05,6.40
2016,03,17,09,06,6.50
2016,03,17,09,07,6.50
2016,03,17,09,08,6.60
2016,03,17,09,09,6.60
2016,03,17,09,10,6.60
2016,03,17,09,11,6.60
2016,03,17,09,12,6.70
2016,03,17,09,13,6.70
2016,03,17,09,14,6.70
2016,03,17,09,15,6.70
2016,03,17,09,16,6.70
2016,03,17,09,17,6.70
2016,03,17,09,18,6.70
2016,03,17,09,19,6.80
2016,03,17,09,20,6.80
2016,03,17,09,21,6.80
2016,03,17,09,22,6.80
2016,03,17,09,23,6.90
2016,03,17,09,24,6.90
2016,03,17,09,25,6.90
2016,03,17,09,26,6.90
2016,03,17,09,27,6.90
2016,03,17,09,28,7.00
2016,03,17,09,29,7.00
2016,03,17,09,30,7.00
2016,03,17,09,31,7.00
2016,03,17,09,32,7.10
2016,03,17,09,33,7.10
2016,03,17,09,34,7.10
2016,03,17,09,35,7.10
2016,03,17,09,36,7.10
2016,03,17,09,37,7.10
2016,03,17,09,38,7.10
2016,03,17,09,39,7.10
2016,03,17,09,40,7.10
2016,03,17,09,41,7.20
2016,03,17,09,42,7.20
2016,03,17,09,43,7.20
2016,03,17,09,44,7.20
2016,03,17,09,45,7.20
2016,03,17,09,46,7.30
2016,03,17,09,47,7.30
2016,03,17,09,48,7.30
2016,03,17,09,49,7.30
2016,03,17,09,50,7.30
2016,03,17,09,51,7.30
2016,03,17,09,52,7.40
2016,03,17,09,53,7.40
2016,03,17,09,54,7.50
2016,03,17,09,55,7.50
2016,03,17,09,56,7.60
2016,03,17,09,57,7.70
2016,03,17,09,58,7.70
2016,03,17,09,59,7.70
2016,03,17,10,00,7.80
2016,03,17,10,01,7.80
2016,03,17,10,02,7.80
2016,03,17,10,03,7.80
2016,03,17,10,04,7.80
2016,03,17,10,05,7.80
2016,03,17,10,06,7.80
2016,03,17,10,07,7.80
2016,03,17,10,08,7.80
2016,03,17,10,09,7.80
2016,03,17,10,10,7.80
2016,03,17,10,11,7.80
2016,03,17,10,12,7.80
2016,03,17,10,13,7.80
2016,03,17,10,14,7.80
2016,03,17,10,15,7.80
2016,03,17,10,16,7.90
2016,03,17,10,17,7.90
2016,03,17,10,18,7.90
2016,03,17,10,19,7.90
2016,03,17,10,20,7.80
2016,03,17,10,21,7.80
2016,03,17,10,22,7.80
2016,03,17,10,23,7.80
2016,03,17,10,24,7.80
2016,03,17,10,25,7.80
2016,03,17,10,26,7.80
2016,03,17,10,27,7.90
2016,03,17,10,28,7.90
2016,03,17,10,29,8.00
2016,03,17,10,30,8.10
2016,03,17,10,31,8.00
2016,03,17,10,32,8.10
2016,03,17,10,33,8.10
2016,03,17,10,34,8.10
2016,03,17,10,35,8.10
2016,03,17,10,36,8.10
2016,03,17,10,37,8.10
2016,03,17,10,38,8.10
2016,03,17,10,39,8.10
2016,03,17,10,40,8.20
2016,03,17,10,41,8.20
2016,03,17,10,42,8.20
2016,03,17,10,43,8.10
2016,03,17,10,44,8.20
2016,03,17,10,45,8.20
2016,03,17,10,46,8.20
2016,03,17,10,47,8.20
2016,03,17,10,48,8.20
2016,03,17,10,49,8.20
2016,03,17,10,50,8.20
2016,03,17,10,51,8.30
2016,03,17,10,52,8.30
2016,03,17,10,53,8.30
2016,03,17,10,54,8.30
2016,03,17,10,55,8.30
2016,03,17,10,56,8.40
2016,03,17,10,57,8.30
2016,03,17,10,58,8.30
2016,03,17,10,59,8.40
2016,03,17,11,00,8.40
2016,03,17,11,01,8.40
2016,03,17,11,02,8.50
2016,03,17,11,03,8.50
2016,03,17,11,04,8.50
2016,03,17,11,05,8.50
2016,03,17,11,06,8.50
2016,03,17,11,07,8.50
2016,03,17,11,08,8.60
2016,03,17,11,09,8.60
2016,03,17,11,10,8.60
2016,03,17,11,11,8.60
2016,03,17,11,12,8.60
2016,03,17,11,13,8.60
2016,03,17,11,14,8.60
2016,03,17,11,15,8.60
2016,03,17,11,16,8.60
2016,03,17,11,17,8.60
2016,03,17,11,18,8.50
2016,03,17,11,19,8.50
2016,03,17,11,20,8.50
2016,03,17,11,21,8.50
2016,03,17,11,22,8.50
2016,03,17,11,23,8.50
2016,03,17,11,24,8.50
2016,03,17,11,25,8.50
2016,03,17,11,26,8.60
2016,03,17,11,27,8.60
2016,03,17,11,28,8.60
2016,03,17,11,29,8.70
2016,03,17,11,30,8.70
2016,03,17,11,31,8.70
2016,03,17,11,32,8.70
2016,03,17,11,33,8.70
2016,03,17,11,34,8.70
2016,03,17,11,35,8.70
2016,03,17,11,36,8.70
2016,03,17,11,37,8.70
2016,03,17,11,38,8.70
2016,03,17,11,39,8.80
2016,03,17,11,40,8.80
2016,03,17,11,41,8.90
2016,03,17,11,42,8.90
2016,03,17,11,43,8.90
2016,03,17,11,44,8.90
2016,03,17,11,45,8.90
2016,03,17,11,46,8.90
2016,03,17,11,47,8.90
2016,03,17,11,48,8.90
2016,03,17,11,49,8.90
2016,03,17,11,50,8.90
2016,03,17,11,51,8.80
2016,03,17,11,52,8.80
2016,03,17,11,53,8.80
2016,03,17,11,54,8.80
2016,03,17,11,55,8.90
2016,03,17,11,56,8.90
2016,03,17,11,57,8.90
2016,03,17,11,58,8.90
2016,03,17,11,59,8.80
2016,03,17,12,00,8.80
2016,03,17,12,01,8.80
2016,03,17,12,02,8.80
2016,03,17,12,03,8.80
2016,03,17,12,04,8.80
2016,03,17,12,05,8.90
2016,03,17,12,06,8.90
2016,03,17,12,07,8.90
2016,03,17,12,08,8.90
2016,03,17,12,09,8.90
2016,03,17,12,10,8.90
2016,03,17,12,11,8.90
2016,03,17,12,12,8.90
2016,03,17,12,13,8.90
2016,03,17,12,14,8.90
2016,03,17,12,15,8.90
2016,03,17,12,16,8.90
2016,03,17,12,17,8.90
2016,03,17,12,18,9.00
2016,03,17,12,19,9.00
2016,03,17,12,20,9.10
2016,03,17,12,21,9.10
2016,03,17,12,22,9.20
2016,03,17,12,23,9.30
2016,03,17,12,24,9.30
2016,03,17,12,25,9.30
2016,03,17,12,26,9.40
2016,03,17,12,27,9.40
2016,03,17,12,28,9.40
2016,03,17,12,29,9.40
2016,03,17,12,30,9.40
2016,03,17,12,31,9.40
2016,03,17,12,32,9.30
2016,03,17,12,33,9.30
2016,03,17,12,34,9.30
2016,03,17,12,35,9.30
2016,03,17,12,36,9.30
2016,03,17,12,37,9.30
2016,03,17,12,38,9.40
2016,03,17,12,39,9.40
2016,03,17,12,40,9.40
2016,03,17,12,41,9.40
2016,03,17,12,42,9.40
2016,03,17,12,43,9.50
2016,03,17,12,44,9.50
2016,03,17,12,45,9.60
2016,03,17,12,46,9.50
2016,03,17,12,47,9.60
2016,03,17,12,48,9.50
2016,03,17,12,49,9.50
2016,03,17,12,50,9.50
2016,03,17,12,51,9.50
2016,03,17,12,52,9.50
2016,03,17,12,53,9.50
2016,03,17,12,54,9.60
2016,03,17,12,55,9.60
2016,03,17,12,56,9.60
2016,03,17,12,57,9.60
2016,03,17,12,58,9.60
2016,03,17,12,59,9.60
2016,03,17,13,00,9.60
2016,03,17,13,01,9.70
2016,03,17,13,02,9.70
2016,03,17,13,03,9.70
2016,03,17,13,04,9.70
2016,03,17,13,05,9.70
2016,03,17,13,06,9.60
2016,03,17,13,07,9.60
2016,03,17,13,08,9.60
2016,03,17,13,09,9.60
2016,03,17,13,10,9.60
2016,03,17,13,11,9.60
2016,03,17,13,12,9.50
2016,03,17,13,13,9.50
2016,03,17,13,14,9.50
2016,03,17,13,15,9.50
2016,03,17,13,16,9.60
2016,03,17,13,17,9.60
2016,03,17,13,18,9.60
2016,03,17,13,19,9.70
2016,03,17,13,20,9.60
2016,03,17,13,21,9.70
2016,03,17,13,22,9.70
2016,03,17,13,23,9.70
2016,03,17,13,24,9.70
2016,03,17,13,25,9.70
2016,03,17,13,26,9.80
2016,03,17,13,27,9.80
2016,03,17,13,28,9.80
2016,03,17,13,29,9.80
2016,03,17,13,30,9.80
2016,03,17,13,31,9.80
2016,03,17,13,32,9.90
2016,03,17,13,33,9.90
2016,03,17,13,34,9.90
2016,03,17,13,35,10.00
2016,03,17,13,36,10.00
2016,03,17,13,37,10.10
2016,03,17,13,38,10.10
2016,03,17,13,39,10.10
2016,03,17,13,40,10.10
2016,03,17,13,41,10.10
2016,03,17,13,42,10.10
2016,03,17,13,43,10.00
2016,03,17,13,44,9.90
2016,03,17,13,45,9.90
2016,03,17,13,46,9.90
2016,03,17,13,47,9.90
2016,03,17,13,48,9.90
2016,03,17,13,49,9.90
2016,03,17,13,50,9.90
2016,03,17,13,51,9.90
2016,03,17,13,52,9.90
2016,03,17,13,53,9.90
2016,03,17,13,54,9.90
2016,03,17,13,55,9.90
2016,03,17,13,56,9.90
2016,03,17,13,57,10.00
2016,03,17,13,58,10.00
2016,03,17,13,59,10.10
2016,03,17,14,00,10.10
2016,03,17,14,01,10.10
2016,03,17,14,02,10.10
2016,03,17,14,03,10.10
2016,03,17,14,04,10.00
2016,03,17,14,05,10.00
2016,03,17,14,06,10.00
2016,03,17,14,07,10.00
2016,03,17,14,08,10.00
2016,03,17,14,09,10.10
2016,03,17,14,10,10.20
2016,03,17,14,11,10.20
2016,03,17,14,12,10.30
2016,03,17,14,13,10.30
2016,03,17,14,14,10.30
2016,03,17,14,15,10.40
2016,03,17,14,16,10.40
2016,03,17,14,17,10.50
2016,03,17,14,18,10.50
2016,03,17,14,19,10.50
2016,03,17,14,20,10.50
2016,03,17,14,21,10.60
2016,03,17,14,22,10.60
2016,03,17,14,23,10.70
2016,03,17,14,24,10.70
2016,03,17,14,25,10.70
2016,03,17,14,26,10.60
2016,03,17,14,27,10.60
2016,03,17,14,28,10.50
2016,03,17,14,29,10.50
2016,03,17,14,30,10.40
2016,03,17,14,31,10.40
2016,03,17,14,32,10.40
2016,03,17,14,33,10.40
2016,03,17,14,34,10.40
2016,03,17,14,35,10.40
2016,03,17,14,36,10.40
2016,03,17,14,37,10.40
2016,03,17,14,38,10.40
2016,03,17,14,39,10.40
2016,03,17,14,40,10.40
2016,03,17,14,41,10.50
2016,03,17,14,42,10.50
2016,03,17,14,43,10.50
2016,03,17,14,44,10.60
2016,03,17,14,45,10.60
2016,03,17,14,46,10.60
2016,03,17,14,47,10.60
2016,03,17,14,48,10.60
2016,03,17,14,49,10.70
2016,03,17,14,50,10.60
2016,03,17,14,51,10.60
2016,03,17,14,52,10.60
2016,03,17,14,53,10.60
2016,03,17,14,54,10.60
2016,03,17,14,55,10.60
2016,03,17,14,56,10.60
2016,03,17,14,57,10.60
2016,03,17,14,58,10.70
2016,03,17,14,59,10.70
2016,03,17,15,00,10.70
2016,03,17,15,01,10.70
2016,03,17,15,02,10.70
2016,03,17,15,03,10.70
2016,03,17,15,04,10.80
2016,03,17,15,05,10.80
2016,03,17,15,06,10.70
2016,03,17,15,07,10.70
2016,03,17,15,08,10.70
2016,03,17,15,09,10.60
2016,03,17,15,10,10.60
2016,03,17,15,11,10.60
2016,03,17,15,12,10.60
2016,03,17,15,13,10.60
2016,03,17,15,14,10.60
2016,03,17,15,15,10.60
2016,03,17,15,16,10.60
2016,03,17,15,17,10.60
2016,03,17,15,18,10.60
2016,03,17,15,19,10.70
2016,03,17,15,20,10.70
2016,03,17,15,21,10.80
2016,03,17,15,22,10.80
2016,03,17,15,23,10.80
2016,03,17,15,24,10.80
2016,03,17,15,25,10.80
2016,03,17,15,26,10.80
2016,03,17,15,27,10.90
2016,03,17,15,28,10.90
2016,03,17,15,29,10.90
2016,03,17,15,30,10.90
2016,03,17,15,31,10.80
2016,03,17,15,32,10.80
2016,03,17,15,33,10.80
2016,03,17,15,34,10.80
2016,03,17,15,35,10.80
2016,03,17,15,36,10.90
2016,03,17,15,37,10.80
2016,03,17,15,38,10.80
2016,03,17,15,39,10.80
2016,03,17,15,40,10.80
2016,03,17,15,41,10.80
2016,03,17,15,42,10.80
2016,03,17,15,43,10.90
2016,03,17,15,44,10.90
2016,03,17,15,45,10.90
2016,03,17,15,46,10.80
2016,03,17,15,47,10.80
2016,03,17,15,48,10.80
2016,03,17,15,49,10.80
2016,03,17,15,50,10.80
2016,03,17,15,51,10.90
2016,03,17,15,52,10.90
2016,03,17,15,53,10.90
2016,03,17,15,54,10.90
2016,03,17,15,55,10.90
2016,03,17,15,56,10.90
2016,03,17,15,57,10.90
2016,03,17,15,58,10.90
2016,03,17,15,59,10.90
2016,03,17,16,00,10.90
2016,03,17,16,01,10.90
2016,03,17,16,02,10.90
2016,03,17,16,03,10.90
2016,03,17,16,04,10.90
2016,03,17,16,05,10.90
2016,03,17,16,06,10.90
2016,03,17,16,07,10.90
2016,03,17,16,08,10.90
2016,03,17,16,09,10.90
2016,03,17,16,10,10.90
2016,03,17,16,11,10.90
2016,03,17,16,12,10.90
2016,03,17,16,13,10.90
2016,03,17,16,14,11.00
2016,03,17,16,15,11.00
2016,03,17,16,16,11.00
2016,03,17,16,17,11.00
2016,03,17,16,18,11.00
2016,03,17,16,19,11.10
2016,03,17,16,20,11.10
2016,03,17,16,21,11.10
2016,03,17,16,22,11.10
2016,03,17,16,23,11.10
2016,03,17,16,24,11.10
2016,03,17,16,25,11.10
2016,03,17,16,26,11.10
2016,03,17,16,27,11.10
2016,03,17,16,28,11.10
2016,03,17,16,29,11.10
2016,03,17,16,30,11.10
2016,03,17,16,31,11.20
2016,03,17,16,32,11.20
2016,03,17,16,33,11.20
2016,03,17,16,34,11.20
2016,03,17,16,35,11.20
2016,03,17,16,36,11.20
2016,03,17,16,37,11.20
2016,03,17,16,38,11.20
2016,03,17,16,39,11.20
2016,03,17,16,40,11.20
2016,03,17,16,41,11.20
2016,03,17,16,42,11.20
2016,03,17,16,43,11.20
2016,03,17,16,44,11.30
2016,03,17,16,45,11.30
2016,03,17,16,46,11.30
2016,03,17,16,47,11.30
2016,03,17,16,48,11.20
2016,03,17,16,49,11.20
2016,03,17,16,50,11.20
2016,03,17,16,51,11.20
2016,03,17,16,52,11.20
2016,03,17,16,53,11.20
2016,03,17,16,54,11.20
2016,03,17,16,55,11.20
2016,03,17,16,56,11.20
2016,03,17,16,57,11.20
2016,03,17,16,58,11.20
2016,03,17,16,59,11.20
2016,03,17,17,00,11.20
2016,03,17,17,01,11.20
2016,03,17,17,02,11.20
2016,03,17,17,03,11.20
2016,03,17,17,04,11.20
2016,03,17,17,05,11.20
2016,03,17,17,06,11.20
2016,03,17,17,07,11.20
2016,03,17,17,08,11.20
2016,03,17,17,09,11.20
2016,03,17,17,10,11.30
2016,03,17,17,11,11.30
2016,03,17,17,12,11.30
2016,03,17,17,13,11.20
2016,03,17,17,14,11.20
2016,03,17,17,15,11.20
2016,03,17,17,16,11.20
2016,03,17,17,17,11.20
2016,03,17,17,18,11.20
2016,03,17,17,19,11.20
2016,03,17,17,20,11.20
2016,03,17,17,21,11.20
2016,03,17,17,22,11.20
2016,03,17,17,23,11.30
2016,03,17,17,24,11.30
2016,03,17,17,25,11.30
2016,03,17,17,26,11.30
2016,03,17,17,27,11.30
2016,03,17,17,28,11.30
2016,03,17,17,29,11.30
2016,03,17,17,30,11.30
2016,03,17,17,31,11.30
2016,03,17,17,32,11.30
2016,03,17,17,33,11.30
2016,03,17,17,34,11.30
2016,03,17,17,35,11.30
2016,03,17,17,36,11.30
2016,03,17,17,37,11.30
2016,03,17,17,38,11.30
2016,03,17,17,39,11.30
2016,03,17,17,40,11.30
2016,03,17,17,41,11.30
2016,03,17,17,42,11.30
2016,03,17,17,43,11.30
2016,03,17,17,44,11.30
2016,03,17,17,45,11.30
2016,03,17,17,46,11.30
2016,03,17,17,47,11.30
2016,03,17,17,48,11.30
2016,03,17,17,49,11.30
2016,03,17,17,50,11.30
2016,03,17,17,51,11.30
2016,03,17,17,52,11.30
2016,03,17,17,53,11.30
2016,03,17,17,54,11.30
2016,03,17,17,55,11.20